ZY 3 2

导读 | 星芒AI

ZY-3 02星是中国高分辨率立体测图卫星,于2014年发射,是资源三号系列的第二颗卫星。该卫星主要用于地形测绘、土地调查、灾害监测等领域,具备高精度立体成像能力,空间分辨率达1米。ZY-3 02星搭载多光谱和全色传感器,支持数字高程模型生成,提升了我国自主遥感数据的获取能力,广泛应用于国土资源管理、城市规划和环境保护等国家重大工程。

基本信息
目录编号:
41556
目录名称:
ZY 3 2
国际标识:
2016-033A
轨道中心:
EARTH
卫星名称:
ZY 3 2
卫星全名:
--
卫星状态:
在轨 (已飞行3486 天)
发射日期:
2016-05-30 UTC
国别 :
中国 (CN)
星等 :
--
轨道信息
数据来源 国际轨道数据 AOE轨道数据
星历时间 2025-12-15T06:57:32+0800
19小时前
查看轨道信息
2025-12-13T11:00:00+0800
2天前
查看轨道信息
半长轴 6879.336km 6879.462km
偏心率 0.0012606 0.0012599
轨道倾角 97.404° 97.405°
近地点辐角 240.471° 247.132°
升交点赤经 63.088° 61.285°
平近点角 119.527° 166.548°
近地点 492.528km 492.659km
远地点 509.874km 509.995km
周期 94.641分钟 94.644分钟
每日圈数 15.215388 15.21497
详细信息
使用方式:
暂无
2D轨道图
3D轨道图
轨道高度分析图
轨道倾角分析图
轨道综合分析图
查看轨道综合分析图